Location: Chiroubles
(46.1812°N, 4.6660°E)
Time: 09:44:39
(UTC+00:00)

ISS - Visible Passes

Search period start: 27 October 2020 00:00
Search period end: 06 November 2020 00:00
Orbit: 417 x 420 km, 51.6° (Epoch: 27 October)

Date Brightness Start Highest point End Pass type
(mag) Time Alt. Az. Time Alt. Az. Time Alt. Az.
27 Oct -0.5 03:21:42 13° E 03:21:42 13° E 03:22:18 10° E visible
27 Oct -3.8 04:54:40 30° WSW 04:56:10 70° NNW 04:59:32 10° ENE visible
28 Oct -3.0 04:09:06 53° ENE 04:09:06 53° ENE 04:11:47 10° ENE visible
28 Oct -2.8 05:42:18 10° WNW 05:45:26 34° N 05:48:33 10° ENE visible
29 Oct -0.5 03:23:27 14° ENE 03:23:27 14° ENE 03:23:57 10° ENE visible
29 Oct -3.1 04:56:24 29° WNW 04:57:33 40° NNW 05:00:46 10° ENE visible
30 Oct -2.5 04:10:41 36° NNE 04:10:41 36° NNE 04:13:00 10° ENE visible
30 Oct -2.5 05:43:54 10° WNW 05:46:57 30° N 05:49:59 10° ENE visible
31 Oct -0.4 03:24:55 12° ENE 03:24:55 12° ENE 03:25:15 10° ENE visible
31 Oct -2.6 04:57:52 25° NW 04:59:02 31° N 05:02:05 10° ENE visible
01 Nov -2.1 04:12:04 28° NNE 04:12:04 28° NNE 04:14:15 10° ENE visible
01 Nov -2.6 05:45:19 10° WNW 05:48:27 35° N 05:51:34 10° ENE visible
02 Nov -0.3 03:26:15 11° NE 03:26:15 11° NE 03:26:27 10° ENE visible
02 Nov -2.5 04:59:12 23° NW 05:00:32 31° N 05:03:36 10° ENE visible
03 Nov -2.0 04:13:23 27° NNE 04:13:23 27° NNE 04:15:39 10° ENE visible
03 Nov -3.2 05:46:32 10° WNW 05:49:51 52° NNE 05:53:09 10° E visible
04 Nov -0.3 03:27:34 11° ENE 03:27:34 11° ENE 03:27:44 10° ENE visible
04 Nov -2.9 05:00:31 25° NW 05:01:59 41° NNE 05:05:11 10° E visible
05 Nov -2.2 04:14:43 31° NE 04:14:43 31° NE 04:17:12 10° ENE visible
05 Nov -3.7 05:47:44 10° WNW 05:51:06 80° SSW 05:54:27 10° ESE visible
